Location: Julian California
(33.0790°N, 116.6010°W)
Time: 09:56:07
(UTC-07:00)

SPOT 5 - Pass Details

Date: 14 June 2018
Orbit: 624 x 814 km, 98.3° (Epoch: 16 October)

Event Time Altitude Azimuth Distance (km) Brightness Sun altitude
Exits shadow 21:44:47 29° 97° (E) 1,319 3.8 -18.9°
Maximum altitude 21:45:56 32° 70° (ENE) 1,235 3.8 -19.0°
Drops below altitude 10° 21:50:23 10° 8° (N) 2,291 6.0 -19.7°
Sets 21:52:56 0° 359° (N) 3,249 7.0 -20.0°
